Tracking 29892 objects as of 21-Nov-2024
HD Live streaming from Space Station
objects crossing your sky now

FENGYUN 1C DEB

Track FENGYUN 1C DEB now!
10-day predictions


NORAD ID: 37008
Int'l Code: 1999-025ECQ
Perigee: 834.0 km
Apogee: 925.8 km
Inclination: 99.1 °
Period: 102.4 minutes
Semi major axis: 7250 km
RCS: 0.002 m2 (small)
Launch date: May 10, 1999
Source: People's Republic of China (PRC)
Launch site: Taiyaun Space Center, China (TSC)

Note: This is SATELLITE DEBRIS
Your satellite tracking list
Your tracking list is empty




NASA's NSSDC Master Catalog

Two Line Element Set (TLE):
1 37008U 99025ECQ 24325.77257106  .00003079  00000-0  18681-2 0  9999
2 37008  99.1141  75.1675 0063262 254.2083 105.2103 14.06092241548726
Source of the keplerian elements: AFSPC